Terminal Aerodrome Forecast
Issued by NWS Blacksburg, VA

Home | Current Version | Previous Version | Text Only | Print | Product List | Glossary On
Versions: 1 2 3 4 5 6 7 8 9 10 11 12 13 14 15 16 17 18 19 20 21 22 23 24 25 26 27 28 29 30 31 32 33 34 35 36 37 38 39 40 41
240
FTUS41 KRNK 131244 AAA
TAFBLF
TAF AMD
KBLF 131244Z 1313/1412 31015G26KT 5SM -SHSN BKN017 OVC025
      TEMPO 1313/1315 1 1/2SM -SHSN BKN013 OVC023
     FM131700 30013G20KT P6SM OVC020
     FM140100 31008KT P6SM BKN025
     FM140400 30006KT P6SM SCT025=

USA.gov is the U.S. government's official web portal to all federal, state and local government web resources and services.